AirNav   SIMCOM
 
 628 users online  

72NE J&J Airport
Springfield, Nebraska, USA

GOING TO SPRINGFIELD?


FAA INFORMATION EFFECTIVE 09 NOVEMBER 2017

Location

FAA Identifier: 72NE
Lat/Long: 41-04-44.9950N / 096-09-11.0560W
41-04.749917N / 096-09.184267W
41.0791653 / -96.1530711
(estimated)
Elevation: 1135 ft. / 346 m (estimated)
Variation: 06E (1985)
From city: 1 mile W of SPRINGFIELD, NE
Time zone: UTC -6 (UTC -5 during Daylight Saving Time)
Zip code: 68059

Airport Operations

Airport use: Private use. Permission required prior to landing
Activation date: 11/1968
Control tower: no
ARTCC: MINNEAPOLIS CENTER
FSS: COLUMBUS FLIGHT SERVICE STATION
Attendance: UNATNDD
Wind indicator: yes
Segmented circle: no

Airport Communications

WX AWOS-3 at MLE (7 nm N): 118.25 (402-895-6778)
WX AWOS-3 at PMV (13 nm SE): 118.975 (402-298-7524)
WX ASOS at OMA (18 nm NE): PHONE 402-344-0324

Nearby radio navigation aids

VOR radial/distance  VOR name  Freq  Var
OVRr246/19.5OMAHA VORTAC116.3008E
LNKr062/28.3LINCOLN VORTAC116.1009E
SCBr140/38.1SCRIBNER VOR/DME111.0006E

 
NDB name  Hdg/Dist  Freq  Var  ID
PLATTSMOUTH302/13.632905EPMV .--. -- ...-
WAHOO110/22.340006EAHQ .- .... --.-
NEBRASKA CITY332/31.434703EAFK .- ..-. -.-
SHENANDOAH295/39.141105ESDA ... -.. .-

Airport Services

Airframe service: NONE
Powerplant service: NONE

Runway Information

Runway 16/34

Dimensions: 1800 x 80 ft. / 549 x 24 m
Surface: turf
RUNWAY 16  RUNWAY 34
Traffic pattern: leftleft
Obstructions: 15 ft. bldg, 30 ft. from runwaynone
4' FENCE 10' NORTH OF PAD.

Airport Ownership and Management from official FAA records

Ownership: Privately-owned
Owner: JOHN STARTZER
RR 1
SPRINGFIELD, NE 68059
Phone 402-253-2539
Manager: JOHN STARTZER
RR 1
SPRINGFIELD, NE 68059
Phone 402-253-2539

Instrument Procedures

There are no published instrument procedures at 72NE.

Some nearby airports with instrument procedures:

KMLE - Millard Airport (7 nm N)
KOFF - Offutt Air Force Base (11 nm E)
KPMV - Plattsmouth Municipal Airport (13 nm SE)
KOMA - Eppley Airfield (18 nm NE)
KBTA - Blair Municipal Airport (20 nm N)
 
Loc | Ops | Rwys | IFR | FBO | Links
Com | Nav | Svcs | Stats | Notes

Silverhawk Aviation, Inc.
AirBoss

 
Area around 72NE (J&J Airport)
 
Road maps at: MapQuest Bing Google
 
Aerial photo
No photo
 
Sectional chart

 
Airport distance calculator
Flying to J&J Airport? Find the distance to fly.

From to 72NE

Sunrise and sunset
Times for 23-Nov-2017
 Local
(UTC-6)
 Zulu
(UTC)
Morning civil twilight06:5312:53
Sunrise07:2313:23
Sunset16:5922:59
Evening civil twilight17:3023:30

Current date and time
Zulu (UTC)  23-Nov-2017 21:51:54
Local (UTC-6)  23-Nov-2017 15:51:54
 
METAR
KMLE 
7nm N 
232135Z AUTO 15006KT 10SM CLR 18/04 A2988 RMK AO2 T01750042
KOFF 
11nm E 
232056Z AUTO 16006KT 9SM CLR 17/03 A2990 RMK AO2 SLP134 T01710027 57031 $
KPMV 
13nm SE 
232135Z AUTO 16006KT 10SM CLR 18/03 A2989 RMK AO2 T01750032
KOMA 
18nm NE 
232052Z 16007KT 10SM SCT250 16/03 A2989 RMK AO2 SLP125 T01610028 58033
TAF
KOFF 
11nm E 
231800Z 2318/2424 VRB06KT 9999 FEW200 QNH2977INS BECMG 2405/2406 18009KT 9999 FEW200 WS010/23040KT QNH2957INS BECMG 2415/2416 23012KT 9999 FEW200 QNH2958INS BECMG 2417/2418 31012G18KT 9999 SKC 520809 QNH2958INS TEMPO 2418/2421 32015G25KT BECMG 2421/2422 32012KT 9999 SKC QNH2965INS TX16/2418Z TN05/2411Z
KOMA 
18nm NE 
231720Z 2318/2418 18007KT P6SM SKC FM241600 27017G24KT P6SM SKC
NOTAMs
Click for the latest NOTAMs
NOTAMs are issued by the DoD/FAA and will open in a separate window not controlled by AirNav.

 

 
 

Would you like to see your business listed on this page?

 If your business provides an interesting product or service to pilots, flight crews, aircraft, or users of the J&J Airport, you should consider listing it here.  To start the listing process, click on the button below
 
Add a business
 

Other Pages about J&J Airport

Update a link
 
Copyright © AirNav, LLC. All rights reserved. Privacy Policy  Contact